Tracking 29489 objects as of 10-Sep-2024
HD Live streaming from Space Station
objects crossing your sky now

FENGYUN 1C DEB

Track FENGYUN 1C DEB now!
10-day predictions


NORAD ID: 37060
Int'l Code: 1999-025EEU
Perigee: 843.2 km
Apogee: 961.7 km
Inclination: 99.2 °
Period: 102.9 minutes
Semi major axis: 7273 km
RCS: 0.0093 m2 (small)
Launch date: May 10, 1999
Source: People's Republic of China (PRC)
Launch site: Taiyaun Space Center, China (TSC)

Note: This is SATELLITE DEBRIS
Your satellite tracking list
Your tracking list is empty




NASA's NSSDC Master Catalog

Two Line Element Set (TLE):
1 37060U 99025EEU 24233.96936701  .00001261  00000-0  86998-3 0  9999
2 37060  99.1605 286.2722 0081507 230.3170 129.0786 13.99565144560061
Source of the keplerian elements: AFSPC